EN

Hourly Weather Labedzin

Today, 26 July, Monday

Time Temperature Precipitation Wind Pressure Humidity
00:00 +19°C° 0 mm 3 mps 751 mmHg 85%
01:00 +18°C° 0 mm 3 mps 751 mmHg 86%
02:00 +19°C° 0 mm 3 mps 751 mmHg 85%
03:00 +19°C° 0 mm 4 mps 751 mmHg 84%
04:00 +19°C° 0 mm 4 mps 751 mmHg 84%
05:00 +20°C° 0 mm 4 mps 751 mmHg 80%
06:00 +21°C° 0 mm 4 mps 751 mmHg 76%
07:00 +22°C° 0 mm 4 mps 750 mmHg 71%
08:00 +25°C° 0 mm 3 mps 751 mmHg 66%
09:00 +26°C° 0 mm 3 mps 751 mmHg 61%
10:00 +28°C° 0 mm 3 mps 751 mmHg 56%
11:00 +28°C° 0 mm 2 mps 750 mmHg 53%
12:00 +29°C° 0 mm 2 mps 750 mmHg 51%
13:00 +30°C° 0 mm 2 mps 750 mmHg 48%
14:00 +30°C° 0 mm 2 mps 750 mmHg 50%
15:00 +29°C° 0 mm 2 mps 750 mmHg 52%
16:00 +29°C° 0 mm 3 mps 750 mmHg 54%
17:00 +28°C° 0.1 mm 2 mps 750 mmHg 60%
18:00 +26°C° 0.1 mm 2 mps 750 mmHg 67%
19:00 +25°C° 0.1 mm 2 mps 750 mmHg 73%
20:00 +24°C° 0.3 mm 2 mps 750 mmHg 76%
21:00 +23°C° 0.3 mm 2 mps 750 mmHg 80%
22:00 +21°C° 0.3 mm 2 mps 750 mmHg 84%
23:00 +20°C° 0 mm 2 mps 750 mmHg 85%

Tomorrow, 27 July, Tuesday

Time Temperature Precipitation Wind Pressure Humidity
00:00 +20°C° 0 mm 2 mps 750 mmHg 86%
01:00 +20°C° 0 mm 2 mps 750 mmHg 87%
02:00 +20°C° 0 mm 2 mps 750 mmHg 86%
03:00 +20°C° 0 mm 2 mps 750 mmHg 85%
04:00 +21°C° 0 mm 1 mps 750 mmHg 84%
05:00 +20°C° 0.1 mm 2 mps 750 mmHg 83%
06:00 +21°C° 0.1 mm 2 mps 750 mmHg 82%
07:00 +23°C° 0.1 mm 2 mps 750 mmHg 80%
08:00 +24°C° 0.1 mm 3 mps 751 mmHg 75%
09:00 +25°C° 0.1 mm 3 mps 751 mmHg 69%
10:00 +27°C° 0.1 mm 4 mps 751 mmHg 63%
11:00 +26°C° 0.2 mm 4 mps 751 mmHg 65%
12:00 +26°C° 0.2 mm 4 mps 751 mmHg 66%
13:00 +26°C° 0.2 mm 4 mps 751 mmHg 68%
14:00 +27°C° 0 mm 3 mps 751 mmHg 62%
15:00 +28°C° 0 mm 3 mps 751 mmHg 57%
16:00 +29°C° 0 mm 3 mps 751 mmHg 51%
17:00 +28°C° 0 mm 3 mps 751 mmHg 56%
18:00 +27°C° 0 mm 2 mps 751 mmHg 60%
19:00 +26°C° 0 mm 2 mps 751 mmHg 64%
20:00 +25°C° 0 mm 2 mps 751 mmHg 64%
21:00 +24°C° 0 mm 2 mps 751 mmHg 64%
22:00 +24°C° 0 mm 2 mps 752 mmHg 64%
23:00 +23°C° 0 mm 2 mps 752 mmHg 65%

Day after tomorrow, 28 July, Wednesday

Time Temperature Precipitation Wind Pressure Humidity
00:00 +23°C° 0 mm 2 mps 752 mmHg 66%
01:00 +21°C° 0 mm 2 mps 752 mmHg 67%
02:00 +21°C° 0 mm 2 mps 752 mmHg 68%
03:00 +20°C° 0 mm 3 mps 751 mmHg 68%
04:00 +20°C° 0 mm 3 mps 751 mmHg 69%
05:00 +21°C° 0 mm 3 mps 752 mmHg 67%
06:00 +22°C° 0 mm 3 mps 752 mmHg 65%
07:00 +24°C° 0 mm 2 mps 752 mmHg 62%
08:00 +26°C° 0 mm 3 mps 752 mmHg 57%
09:00 +27°C° 0 mm 3 mps 752 mmHg 52%
10:00 +29°C° 0 mm 3 mps 752 mmHg 47%
11:00 +29°C° 0 mm 4 mps 752 mmHg 45%
12:00 +30°C° 0 mm 4 mps 752 mmHg 43%
13:00 +30°C° 0 mm 4 mps 751 mmHg 40%
14:00 +30°C° 0 mm 4 mps 751 mmHg 43%
15:00 +29°C° 0 mm 4 mps 751 mmHg 46%
16:00 +29°C° 0 mm 3 mps 751 mmHg 48%
17:00 +27°C° 0.4 mm 4 mps 751 mmHg 57%
18:00 +25°C° 0.4 mm 4 mps 751 mmHg 66%
19:00 +21°C° 0.4 mm 4 mps 752 mmHg 75%
20:00 +21°C° 0.4 mm 3 mps 752 mmHg 78%
21:00 +20°C° 0.4 mm 2 mps 752 mmHg 80%
22:00 +20°C° 0.4 mm 2 mps 752 mmHg 83%
23:00 +19°C° 0 mm 2 mps 752 mmHg 85%

29 July, Thursday

Time Temperature Precipitation Wind Pressure Humidity
00:00 +19°C° 0 mm 3 mps 752 mmHg 88%
01:00 +18°C° 0 mm 3 mps 752 mmHg 90%
02:00 +18°C° 0 mm 3 mps 752 mmHg 92%
03:00 +17°C° 0 mm 3 mps 752 mmHg 93%
04:00 +16°C° 0 mm 2 mps 752 mmHg 95%
05:00 +17°C° 0 mm 3 mps 752 mmHg 90%
06:00 +18°C° 0 mm 3 mps 752 mmHg 84%
07:00 +20°C° 0 mm 3 mps 752 mmHg 78%
08:00 +21°C° 0 mm 3 mps 752 mmHg 72%
09:00 +23°C° 0 mm 4 mps 752 mmHg 65%
10:00 +26°C° 0 mm 4 mps 752 mmHg 58%
11:00 +27°C° 0 mm 4 mps 752 mmHg 53%
12:00 +28°C° 0 mm 4 mps 752 mmHg 49%
13:00 +29°C° 0 mm 4 mps 751 mmHg 44%
14:00 +28°C° 0 mm 4 mps 751 mmHg 47%
15:00 +27°C° 0 mm 3 mps 751 mmHg 50%
16:00 +27°C° 0 mm 2 mps 751 mmHg 53%
17:00 +26°C° 0 mm 2 mps 750 mmHg 54%
18:00 +26°C° 0 mm 2 mps 750 mmHg 56%
19:00 +25°C° 0 mm 1 mps 750 mmHg 57%
20:00 +24°C° 0 mm 1 mps 750 mmHg 59%
21:00 +24°C° 0 mm 1 mps 750 mmHg 60%
22:00 +23°C° 0 mm 1 mps 749 mmHg 62%
23:00 +22°C° 0 mm 1 mps 749 mmHg 64%

30 July, Friday

Time Temperature Precipitation Wind Pressure Humidity
00:00 +21°C° 0 mm 2 mps 749 mmHg 65%
01:00 +20°C° 0 mm 2 mps 749 mmHg 67%
02:00 +20°C° 0.1 mm 2 mps 749 mmHg 69%
03:00 +20°C° 0.1 mm 3 mps 748 mmHg 72%
04:00 +20°C° 0.1 mm 3 mps 748 mmHg 75%
05:00 +20°C° 0.5 mm 4 mps 748 mmHg 77%
06:00 +21°C° 0.5 mm 4 mps 748 mmHg 78%
07:00 +22°C° 0.5 mm 5 mps 748 mmHg 80%
08:00 +23°C° 0.1 mm 5 mps 748 mmHg 76%
09:00 +24°C° 0.1 mm 6 mps 748 mmHg 72%
10:00 +26°C° 0.1 mm 6 mps 748 mmHg 68%
11:00 +26°C° 0 mm 5 mps 747 mmHg 65%
12:00 +27°C° 0 mm 5 mps 747 mmHg 62%
13:00 +27°C° 0 mm 5 mps 747 mmHg 59%
14:00 +27°C° 0.1 mm 5 mps 747 mmHg 58%
15:00 +27°C° 0.1 mm 5 mps 747 mmHg 58%
16:00 +27°C° 0.1 mm 5 mps 747 mmHg 57%
17:00 +26°C° 0 mm 4 mps 746 mmHg 58%
18:00 +25°C° 0 mm 3 mps 746 mmHg 59%
19:00 +24°C° 0 mm 3 mps 746 mmHg 60%
20:00 +22°C° 0 mm 3 mps 746 mmHg 60%
21:00 +22°C° 0 mm 3 mps 746 mmHg 59%
22:00 +21°C° 0 mm 4 mps 746 mmHg 59%
23:00 +20°C° 0 mm 4 mps 747 mmHg 61%

31 July, Saturday

Time Temperature Precipitation Wind Pressure Humidity
00:00 +19°C° 0 mm 3 mps 747 mmHg 64%
01:00 +18°C° 0 mm 3 mps 747 mmHg 67%
02:00 +18°C° 0 mm 3 mps 747 mmHg 69%
03:00 +17°C° 0 mm 4 mps 747 mmHg 72%
04:00 +17°C° 0 mm 4 mps 747 mmHg 74%
05:00 +17°C° 0 mm 5 mps 748 mmHg 71%
06:00 +19°C° 0 mm 6 mps 748 mmHg 67%
07:00 +18°C° 0 mm 7 mps 748 mmHg 64%
08:00 +20°C° 0 mm 7 mps 748 mmHg 61%
09:00 +21°C° 0 mm 7 mps 749 mmHg 58%
10:00 +22°C° 0 mm 7 mps 749 mmHg 55%
11:00 +22°C° 0 mm 7 mps 749 mmHg 54%
12:00 +22°C° 0 mm 7 mps 749 mmHg 53%
13:00 +22°C° 0 mm 7 mps 749 mmHg 53%
14:00 +22°C° 0 mm 6 mps 749 mmHg 54%
15:00 +22°C° 0 mm 5 mps 749 mmHg 54%
16:00 +22°C° 0 mm 4 mps 749 mmHg 55%
17:00 +21°C° 0 mm 4 mps 749 mmHg 58%
18:00 +21°C° 0 mm 3 mps 749 mmHg 60%
19:00 +20°C° 0 mm 3 mps 749 mmHg 62%
20:00 +19°C° 0 mm 3 mps 749 mmHg 67%
21:00 +18°C° 0 mm 3 mps 749 mmHg 71%
22:00 +17°C° 0 mm 3 mps 749 mmHg 75%
23:00 +17°C° 0 mm 3 mps 749 mmHg 77%
Show more